Year,Month,Day,Hour,Minute,Value (Times are PST for windspeed in km/hr)
2011,03,03,00,00,0.10
2011,03,03,00,01,0.00
2011,03,03,00,02,0.00
2011,03,03,00,03,0.00
2011,03,03,00,04,0.00
2011,03,03,00,05,0.00
2011,03,03,00,06,0.90
2011,03,03,00,07,4.10
2011,03,03,00,08,3.20
2011,03,03,00,09,0.90
2011,03,03,00,10,0.20
2011,03,03,00,11,2.80
2011,03,03,00,12,1.00
2011,03,03,00,16,0.50
2011,03,03,00,17,1.30
2011,03,03,00,18,0.00
2011,03,03,00,19,0.10
2011,03,03,00,20,0.10
2011,03,03,00,21,0.00
2011,03,03,00,22,2.10
2011,03,03,00,23,4.20
2011,03,03,00,24,2.80
2011,03,03,00,25,1.50
2011,03,03,00,26,1.70
2011,03,03,00,27,0.10
2011,03,03,00,28,0.00
2011,03,03,00,29,0.00
2011,03,03,00,30,1.50
2011,03,03,00,31,1.50
2011,03,03,00,32,0.90
2011,03,03,00,33,0.10
2011,03,03,00,34,1.20
2011,03,03,00,35,2.20
2011,03,03,00,36,2.20
2011,03,03,00,37,0.80
2011,03,03,00,38,3.60
2011,03,03,00,39,1.80
2011,03,03,00,40,0.10
2011,03,03,00,41,0.30
2011,03,03,00,42,0.60
2011,03,03,00,43,1.30
2011,03,03,00,44,0.80
2011,03,03,00,45,0.80
2011,03,03,00,46,0.20
2011,03,03,00,47,0.90
2011,03,03,00,48,2.70
2011,03,03,00,49,1.50
2011,03,03,00,50,1.30
2011,03,03,00,51,0.00
2011,03,03,00,52,0.30
2011,03,03,00,53,1.50
2011,03,03,00,54,0.30
2011,03,03,00,55,0.00
2011,03,03,00,56,0.00
2011,03,03,00,57,0.00
2011,03,03,00,58,0.00
2011,03,03,00,59,1.20
2011,03,03,01,00,1.30
2011,03,03,01,01,1.50
2011,03,03,01,02,0.60
2011,03,03,01,03,0.30
2011,03,03,01,04,0.10
2011,03,03,01,05,0.10
2011,03,03,01,06,0.10
2011,03,03,01,07,2.40
2011,03,03,01,08,1.00
2011,03,03,01,09,0.00
2011,03,03,01,10,0.10
2011,03,03,01,11,0.30
2011,03,03,01,12,0.70
2011,03,03,01,13,0.00
2011,03,03,01,14,0.00
2011,03,03,01,15,0.40
2011,03,03,01,16,0.50
2011,03,03,01,17,0.30
2011,03,03,01,18,1.90
2011,03,03,01,19,0.90
2011,03,03,01,20,0.40
2011,03,03,01,21,1.00
2011,03,03,01,22,0.20
2011,03,03,01,23,0.80
2011,03,03,01,24,1.70
2011,03,03,01,25,1.50
2011,03,03,01,26,0.20
2011,03,03,01,27,1.90
2011,03,03,01,28,2.80
2011,03,03,01,29,1.40
2011,03,03,01,30,3.70
2011,03,03,01,31,1.40
2011,03,03,01,32,0.90
2011,03,03,01,33,0.10
2011,03,03,01,34,1.10
2011,03,03,01,35,0.20
2011,03,03,01,36,0.60
2011,03,03,01,37,1.20
2011,03,03,01,38,1.10
2011,03,03,01,39,2.20
2011,03,03,01,40,5.10
2011,03,03,01,41,2.00
2011,03,03,01,42,1.20
2011,03,03,01,43,0.90
2011,03,03,01,44,1.00
2011,03,03,01,45,0.90
2011,03,03,01,46,0.00
2011,03,03,01,47,1.80
2011,03,03,01,48,0.30
2011,03,03,01,49,0.40
2011,03,03,01,50,1.20
2011,03,03,01,51,1.00
2011,03,03,01,52,3.40
2011,03,03,01,53,1.50
2011,03,03,01,54,0.00
2011,03,03,01,55,4.70
2011,03,03,01,56,0.60
2011,03,03,01,57,0.00
2011,03,03,01,58,0.50
2011,03,03,01,59,2.10
2011,03,03,02,00,1.30
2011,03,03,02,01,0.50
2011,03,03,02,02,2.00
2011,03,03,02,03,1.40
2011,03,03,02,04,0.30
2011,03,03,02,05,0.20
2011,03,03,02,06,0.80
2011,03,03,02,07,0.60
2011,03,03,02,08,0.10
2011,03,03,02,09,0.70
2011,03,03,02,10,1.30
2011,03,03,02,11,1.90
2011,03,03,02,12,3.50
2011,03,03,02,13,1.10
2011,03,03,02,14,1.50
2011,03,03,02,15,1.80
2011,03,03,02,16,1.10
2011,03,03,02,17,3.00
2011,03,03,02,18,0.00
2011,03,03,02,19,0.30
2011,03,03,02,20,0.20
2011,03,03,02,21,0.40
2011,03,03,02,22,0.70
2011,03,03,02,23,2.00
2011,03,03,02,24,1.40
2011,03,03,02,25,2.30
2011,03,03,02,26,2.70
2011,03,03,02,27,1.10
2011,03,03,02,28,3.80
2011,03,03,02,29,1.30
2011,03,03,02,30,0.20
2011,03,03,02,31,0.60
2011,03,03,02,32,0.80
2011,03,03,02,33,0.00
2011,03,03,02,34,0.10
2011,03,03,02,35,1.40
2011,03,03,02,36,2.30
2011,03,03,02,37,0.90
2011,03,03,02,38,0.60
2011,03,03,02,39,0.80
2011,03,03,02,40,0.90
2011,03,03,02,41,3.00
2011,03,03,02,42,1.40
2011,03,03,02,43,0.00
2011,03,03,02,44,0.30
2011,03,03,02,45,0.00
2011,03,03,02,46,0.70
2011,03,03,02,47,0.60
2011,03,03,02,48,0.20
2011,03,03,02,49,0.10
2011,03,03,02,50,0.00
2011,03,03,02,51,0.10
2011,03,03,02,52,0.00
2011,03,03,02,53,0.00
2011,03,03,02,54,0.20
2011,03,03,02,55,0.00
2011,03,03,02,56,0.80
2011,03,03,02,57,1.50
2011,03,03,02,58,0.00
2011,03,03,02,59,0.00
2011,03,03,03,00,0.50
2011,03,03,03,01,0.00
2011,03,03,03,02,0.00
2011,03,03,03,03,0.00
2011,03,03,03,04,0.10
2011,03,03,03,05,0.00
2011,03,03,03,06,1.10
2011,03,03,03,07,0.50
2011,03,03,03,08,0.20
2011,03,03,03,09,0.00
2011,03,03,03,10,0.50
2011,03,03,03,11,1.90
2011,03,03,03,12,1.10
2011,03,03,03,13,0.00
2011,03,03,03,14,1.30
2011,03,03,03,15,0.50
2011,03,03,03,16,0.00
2011,03,03,03,17,0.00
2011,03,03,03,18,0.00
2011,03,03,03,19,0.00
2011,03,03,03,20,0.00
2011,03,03,03,21,0.00
2011,03,03,03,22,0.00
2011,03,03,03,23,0.00
2011,03,03,03,24,0.10
2011,03,03,03,25,0.30
2011,03,03,03,26,1.10
2011,03,03,03,27,0.80
2011,03,03,03,28,1.40
2011,03,03,03,29,0.10
2011,03,03,03,30,0.50
2011,03,03,03,31,2.10
2011,03,03,03,32,3.50
2011,03,03,03,33,1.00
2011,03,03,03,34,0.60
2011,03,03,03,35,0.60
2011,03,03,03,36,0.70
2011,03,03,03,37,0.10
2011,03,03,03,38,0.50
2011,03,03,03,39,0.40
2011,03,03,03,40,1.30
2011,03,03,03,41,0.10
2011,03,03,03,42,0.00
2011,03,03,03,43,0.00
2011,03,03,03,44,0.00
2011,03,03,03,45,0.80
2011,03,03,03,46,0.00
2011,03,03,03,47,1.60
2011,03,03,03,48,0.80
2011,03,03,03,49,0.10
2011,03,03,03,50,1.20
2011,03,03,03,51,0.40
2011,03,03,03,52,0.90
2011,03,03,03,53,0.80
2011,03,03,03,54,0.30
2011,03,03,03,55,1.20
2011,03,03,03,56,0.70
2011,03,03,03,57,1.90
2011,03,03,03,58,0.20
2011,03,03,03,59,0.00
2011,03,03,04,00,0.50
2011,03,03,04,01,0.30
2011,03,03,04,02,2.00
2011,03,03,04,03,2.80
2011,03,03,04,04,0.50
2011,03,03,04,05,0.00
2011,03,03,04,06,1.40
2011,03,03,04,07,3.90
2011,03,03,04,08,4.60
2011,03,03,04,09,0.20
2011,03,03,04,10,0.00
2011,03,03,04,11,4.10
2011,03,03,04,12,3.10
2011,03,03,04,13,0.70
2011,03,03,04,14,0.00
2011,03,03,04,15,0.00
2011,03,03,04,16,3.00
2011,03,03,04,17,3.00
2011,03,03,04,18,2.70
2011,03,03,04,19,4.40
2011,03,03,04,20,1.40
2011,03,03,04,21,0.30
2011,03,03,04,22,0.90
2011,03,03,04,23,3.00
2011,03,03,04,24,1.00
2011,03,03,04,25,0.30
2011,03,03,04,26,0.30
2011,03,03,04,27,3.70
2011,03,03,04,28,2.50
2011,03,03,04,29,1.20
2011,03,03,04,30,2.70
2011,03,03,04,31,0.70
2011,03,03,04,32,1.80
2011,03,03,04,33,0.00
2011,03,03,04,34,2.30
2011,03,03,04,35,3.60
2011,03,03,04,36,2.10
2011,03,03,04,37,0.80
2011,03,03,04,38,3.20
2011,03,03,04,39,3.00
2011,03,03,04,40,4.00
2011,03,03,04,41,3.60
2011,03,03,04,42,0.80
2011,03,03,04,43,0.40
2011,03,03,04,44,0.30
2011,03,03,04,45,1.40
2011,03,03,04,46,0.70
2011,03,03,04,47,0.00
2011,03,03,04,48,0.10
2011,03,03,04,49,0.00
2011,03,03,04,50,0.10
2011,03,03,04,51,0.20
2011,03,03,04,52,0.00
2011,03,03,04,53,0.30
2011,03,03,04,54,1.50
2011,03,03,04,55,0.50
2011,03,03,04,56,0.40
2011,03,03,04,57,0.20
2011,03,03,04,58,1.40
2011,03,03,04,59,0.30
2011,03,03,05,00,1.00
2011,03,03,05,01,1.00
2011,03,03,05,02,2.30
2011,03,03,05,03,1.00
2011,03,03,05,04,0.20
2011,03,03,05,05,0.80
2011,03,03,05,06,0.60
2011,03,03,05,07,0.40
2011,03,03,05,08,0.00
2011,03,03,05,09,0.90
2011,03,03,05,10,0.30
2011,03,03,05,11,0.30
2011,03,03,05,12,0.00
2011,03,03,05,13,0.00
2011,03,03,05,14,0.00
2011,03,03,05,15,1.10
2011,03,03,05,16,0.30
2011,03,03,05,17,1.10
2011,03,03,05,18,0.30
2011,03,03,05,19,0.00
2011,03,03,05,20,0.00
2011,03,03,05,21,0.40
2011,03,03,05,22,0.40
2011,03,03,05,23,0.30
2011,03,03,05,24,0.00
2011,03,03,05,25,0.00
2011,03,03,05,26,0.50
2011,03,03,05,27,0.20
2011,03,03,05,28,0.90
2011,03,03,05,29,0.10
2011,03,03,05,30,1.80
2011,03,03,05,31,2.60
2011,03,03,05,32,1.40
2011,03,03,05,33,2.40
2011,03,03,05,34,1.80
2011,03,03,05,35,0.50
2011,03,03,05,36,0.10
2011,03,03,05,37,0.10
2011,03,03,05,38,0.00
2011,03,03,05,39,0.60
2011,03,03,05,40,3.40
2011,03,03,05,41,4.40
2011,03,03,05,42,4.70
2011,03,03,05,43,4.50
2011,03,03,05,44,0.40
2011,03,03,05,45,1.30
2011,03,03,05,46,1.30
2011,03,03,05,47,0.30
2011,03,03,05,48,0.80
2011,03,03,05,49,2.70
2011,03,03,05,50,0.70
2011,03,03,05,51,0.30
2011,03,03,05,52,1.00
2011,03,03,05,53,0.60
2011,03,03,05,54,1.90
2011,03,03,05,55,2.40
2011,03,03,05,56,5.80
2011,03,03,05,57,1.50
2011,03,03,05,58,0.60
2011,03,03,05,59,0.20
2011,03,03,06,00,1.40
2011,03,03,06,01,0.60
2011,03,03,06,02,2.50
2011,03,03,06,03,1.30
2011,03,03,06,04,1.30
2011,03,03,06,05,0.70
2011,03,03,06,06,0.80
2011,03,03,06,07,2.40
2011,03,03,06,08,0.70
2011,03,03,06,09,1.20
2011,03,03,06,10,0.40
2011,03,03,06,11,0.30
2011,03,03,06,12,1.00
2011,03,03,06,13,0.80
2011,03,03,06,14,0.20
2011,03,03,06,15,0.00
2011,03,03,06,16,0.40
2011,03,03,06,17,0.30
2011,03,03,06,18,0.20
2011,03,03,06,19,0.40
2011,03,03,06,20,2.10
2011,03,03,06,21,4.20
2011,03,03,06,22,2.20
2011,03,03,06,23,3.80
2011,03,03,06,24,1.80
2011,03,03,06,25,0.60
2011,03,03,06,26,0.30
2011,03,03,06,27,0.30
2011,03,03,06,28,0.10
2011,03,03,06,29,2.10
2011,03,03,06,30,0.20
2011,03,03,06,31,0.40
2011,03,03,06,32,0.30
2011,03,03,06,33,0.50
2011,03,03,06,34,0.10
2011,03,03,06,35,1.40
2011,03,03,06,36,2.10
2011,03,03,06,37,0.70
2011,03,03,06,38,2.20
2011,03,03,06,39,2.20
2011,03,03,06,40,0.40
2011,03,03,06,41,1.40
2011,03,03,06,42,0.20
2011,03,03,06,43,1.70
2011,03,03,06,44,4.10
2011,03,03,06,45,2.30
2011,03,03,06,46,0.50
2011,03,03,06,47,2.00
2011,03,03,06,48,2.50
2011,03,03,06,49,0.30
2011,03,03,06,50,0.90
2011,03,03,06,51,0.00
2011,03,03,06,52,0.30
2011,03,03,06,53,0.00
2011,03,03,06,54,0.70
2011,03,03,06,55,1.10
2011,03,03,06,56,0.10
2011,03,03,06,57,0.80
2011,03,03,06,58,0.30
2011,03,03,06,59,1.40
2011,03,03,07,00,1.40
2011,03,03,07,01,1.90
2011,03,03,07,02,1.60
2011,03,03,07,03,0.20
2011,03,03,07,04,1.30
2011,03,03,07,05,3.60
2011,03,03,07,06,0.10
2011,03,03,07,07,0.20
2011,03,03,07,08,1.90
2011,03,03,07,09,3.90
2011,03,03,07,10,1.40
2011,03,03,07,11,2.30
2011,03,03,07,12,1.90
2011,03,03,07,13,0.60
2011,03,03,07,14,1.60
2011,03,03,07,15,1.30
2011,03,03,07,16,1.00
2011,03,03,07,17,1.60
2011,03,03,07,18,3.80
2011,03,03,07,19,1.80
2011,03,03,07,20,1.60
2011,03,03,07,21,3.80
2011,03,03,07,22,3.50
2011,03,03,07,23,3.70
2011,03,03,07,24,3.60
2011,03,03,07,25,0.50
2011,03,03,07,26,3.60
2011,03,03,07,27,0.50
2011,03,03,07,28,0.70
2011,03,03,07,29,4.70
2011,03,03,07,30,0.90
2011,03,03,07,31,0.30
2011,03,03,07,32,3.40
2011,03,03,07,33,3.00
2011,03,03,07,34,3.50
2011,03,03,07,35,3.20
2011,03,03,07,36,3.20
2011,03,03,07,37,0.90
2011,03,03,07,38,2.70
2011,03,03,07,39,4.60
2011,03,03,07,40,3.10
2011,03,03,07,41,2.60
2011,03,03,07,42,5.60
2011,03,03,07,43,2.20
2011,03,03,07,44,2.10
2011,03,03,07,45,0.90
2011,03,03,07,46,2.90
2011,03,03,07,47,2.00
2011,03,03,07,48,2.80
2011,03,03,07,49,2.20
2011,03,03,07,50,4.10
2011,03,03,07,51,3.10
2011,03,03,07,52,3.50
2011,03,03,07,53,1.00
2011,03,03,07,54,0.20
2011,03,03,07,55,2.20
2011,03,03,07,56,4.80
2011,03,03,07,57,3.80
2011,03,03,07,58,1.80
2011,03,03,07,59,7.20
2011,03,03,08,00,4.50
2011,03,03,08,01,4.80
2011,03,03,08,02,2.70
2011,03,03,08,03,11.90
2011,03,03,08,04,7.40
2011,03,03,08,05,10.50
2011,03,03,08,06,12.80
2011,03,03,08,07,7.60
2011,03,03,08,08,8.60
2011,03,03,08,09,6.70
2011,03,03,08,10,3.90
2011,03,03,08,11,9.40
2011,03,03,08,12,4.50
2011,03,03,08,13,5.10
2011,03,03,08,14,3.20
2011,03,03,08,15,0.60
2011,03,03,08,16,3.30
2011,03,03,08,17,3.30
2011,03,03,08,18,3.00
2011,03,03,08,19,0.60
2011,03,03,08,20,1.10
2011,03,03,08,21,0.30
2011,03,03,08,22,2.20
2011,03,03,08,23,0.60
2011,03,03,08,24,0.00
2011,03,03,08,25,0.00
2011,03,03,08,26,0.20
2011,03,03,08,27,0.10
2011,03,03,08,28,0.00
2011,03,03,08,29,0.00
2011,03,03,08,30,0.00
2011,03,03,08,31,0.00
2011,03,03,08,32,0.80
2011,03,03,08,33,1.70
2011,03,03,08,34,0.20
2011,03,03,08,35,0.90
2011,03,03,08,36,1.10
2011,03,03,08,37,2.70
2011,03,03,08,38,0.90
2011,03,03,08,39,2.70
2011,03,03,08,40,1.10
2011,03,03,08,41,1.10
2011,03,03,08,42,1.80
2011,03,03,08,43,1.90
2011,03,03,08,44,0.10
2011,03,03,08,45,1.10
2011,03,03,08,46,1.30
2011,03,03,08,47,0.00
2011,03,03,08,48,0.20
2011,03,03,08,49,1.30
2011,03,03,08,50,0.00
2011,03,03,08,51,0.00
2011,03,03,08,52,0.00
2011,03,03,08,53,0.30
2011,03,03,08,54,0.70
2011,03,03,08,55,0.00
2011,03,03,08,56,0.20
2011,03,03,08,57,2.50
2011,03,03,08,58,4.10
2011,03,03,08,59,1.40
2011,03,03,09,00,2.20
2011,03,03,09,01,3.10
2011,03,03,09,02,0.20
2011,03,03,09,03,0.00
2011,03,03,09,04,0.20
2011,03,03,09,05,4.00
2011,03,03,09,06,2.20
2011,03,03,09,07,0.10
2011,03,03,09,08,1.60
2011,03,03,09,09,3.70
2011,03,03,09,10,4.00
2011,03,03,09,11,5.50
2011,03,03,09,12,5.00
2011,03,03,09,13,5.10
2011,03,03,09,14,3.00
2011,03,03,09,15,2.50
2011,03,03,09,16,9.20
2011,03,03,09,17,4.20
2011,03,03,09,18,1.40
2011,03,03,09,19,6.40
2011,03,03,09,20,5.60
2011,03,03,09,21,7.30
2011,03,03,09,22,4.60
2011,03,03,09,23,7.00
2011,03,03,09,24,10.30
2011,03,03,09,25,8.60
2011,03,03,09,26,6.90
2011,03,03,09,27,0.40
2011,03,03,09,28,2.40
2011,03,03,09,29,1.00
2011,03,03,09,30,4.20
2011,03,03,09,31,1.00
2011,03,03,09,32,6.90
2011,03,03,09,33,6.80
2011,03,03,09,34,5.60
2011,03,03,09,35,5.30
2011,03,03,09,36,5.60
2011,03,03,09,37,6.40
2011,03,03,09,38,6.20
2011,03,03,09,39,5.90
2011,03,03,09,40,9.60
2011,03,03,09,41,4.70
2011,03,03,09,42,4.00
2011,03,03,09,43,6.40
2011,03,03,09,44,10.30
2011,03,03,09,45,7.10
2011,03,03,09,46,6.60
2011,03,03,09,47,4.00
2011,03,03,09,48,11.10
2011,03,03,09,49,7.10
2011,03,03,09,50,9.70
2011,03,03,09,51,4.90
2011,03,03,09,52,4.30
2011,03,03,09,53,3.50
2011,03,03,09,54,5.80
2011,03,03,09,55,8.90
2011,03,03,09,56,6.40
2011,03,03,09,57,7.90
2011,03,03,09,58,4.10
2011,03,03,09,59,5.20
2011,03,03,10,00,5.20
2011,03,03,10,01,4.80
2011,03,03,10,02,3.00
2011,03,03,10,03,6.30
2011,03,03,10,04,10.50
2011,03,03,10,05,4.30
2011,03,03,10,06,4.50
2011,03,03,10,07,6.80
2011,03,03,10,08,5.20
2011,03,03,10,09,5.30
2011,03,03,10,10,9.70
2011,03,03,10,11,8.90
2011,03,03,10,12,9.80
2011,03,03,10,13,7.90
2011,03,03,10,14,6.70
2011,03,03,10,15,6.50
2011,03,03,10,16,3.30
2011,03,03,10,17,2.00
2011,03,03,10,18,5.00
2011,03,03,10,19,2.60
2011,03,03,10,20,5.40
2011,03,03,10,21,5.30
2011,03,03,10,22,12.10
2011,03,03,10,23,5.50
2011,03,03,10,24,1.50
2011,03,03,10,25,12.20
2011,03,03,10,26,14.20
2011,03,03,10,27,6.20
2011,03,03,10,28,4.70
2011,03,03,10,29,12.10
2011,03,03,10,30,5.20
2011,03,03,10,31,5.80
2011,03,03,10,32,10.20
2011,03,03,10,33,8.90
2011,03,03,10,34,11.10
2011,03,03,10,35,6.60
2011,03,03,10,36,9.00
2011,03,03,10,37,10.50
2011,03,03,10,38,9.00
2011,03,03,10,39,13.50
2011,03,03,10,40,13.20
2011,03,03,10,41,12.40
2011,03,03,10,42,11.80
2011,03,03,10,43,10.20
2011,03,03,10,44,8.20
2011,03,03,10,45,12.60
2011,03,03,10,46,17.10
2011,03,03,10,47,12.20
2011,03,03,10,48,11.90
2011,03,03,10,49,7.70
2011,03,03,10,50,14.10
2011,03,03,10,51,10.80
2011,03,03,10,52,8.10
2011,03,03,10,53,10.80
2011,03,03,10,54,10.40
2011,03,03,10,55,10.00
2011,03,03,10,56,5.80
2011,03,03,10,57,11.80
2011,03,03,10,58,9.60
2011,03,03,10,59,10.40
2011,03,03,11,00,11.90
2011,03,03,11,01,6.20
2011,03,03,11,02,6.20
2011,03,03,11,03,11.90
2011,03,03,11,04,6.60
2011,03,03,11,05,13.70
2011,03,03,11,06,11.00
2011,03,03,11,07,6.00
2011,03,03,11,08,13.40
2011,03,03,11,09,15.20
2011,03,03,11,10,8.60
2011,03,03,11,11,7.50
2011,03,03,11,12,13.60
2011,03,03,11,13,8.60
2011,03,03,11,14,4.80
2011,03,03,11,15,5.90
2011,03,03,11,16,7.50
2011,03,03,11,17,4.50
2011,03,03,11,18,6.60
2011,03,03,11,19,3.10
2011,03,03,11,20,4.90
2011,03,03,11,21,11.00
2011,03,03,11,22,13.80
2011,03,03,11,23,12.60
2011,03,03,11,24,11.60
2011,03,03,11,25,12.00
2011,03,03,11,26,16.00
2011,03,03,11,27,15.50
2011,03,03,11,28,9.10
2011,03,03,11,29,14.70
2011,03,03,11,30,13.80
2011,03,03,11,31,8.20
2011,03,03,11,32,10.80
2011,03,03,11,33,10.50
2011,03,03,11,34,10.50
2011,03,03,11,35,8.90
2011,03,03,11,36,11.00
2011,03,03,11,37,10.70
2011,03,03,11,38,16.80
2011,03,03,11,39,6.90
2011,03,03,11,40,5.40
2011,03,03,11,41,11.30
2011,03,03,11,42,13.30
2011,03,03,11,43,11.00
2011,03,03,11,44,13.80
2011,03,03,11,45,10.80
2011,03,03,11,46,13.10
2011,03,03,11,47,14.10
2011,03,03,11,48,11.60
2011,03,03,11,49,13.30
2011,03,03,11,50,12.30
2011,03,03,11,51,10.40
2011,03,03,11,52,12.30
2011,03,03,11,53,10.30
2011,03,03,11,54,10.00
2011,03,03,11,55,8.50
2011,03,03,11,56,10.20
2011,03,03,11,57,12.00
2011,03,03,11,58,12.40
2011,03,03,11,59,10.90
2011,03,03,12,00,16.70
2011,03,03,12,01,5.30
2011,03,03,12,02,16.50
2011,03,03,12,03,7.90
2011,03,03,12,04,14.00
2011,03,03,12,05,14.20
2011,03,03,12,06,11.60
2011,03,03,12,07,12.00
2011,03,03,12,08,8.00
2011,03,03,12,09,16.20
2011,03,03,12,10,11.10
2011,03,03,12,11,7.00
2011,03,03,12,12,11.90
2011,03,03,12,13,8.00
2011,03,03,12,14,11.40
2011,03,03,12,15,11.30
2011,03,03,12,16,7.80
2011,03,03,12,17,11.30
2011,03,03,12,18,11.10
2011,03,03,12,19,7.20
2011,03,03,12,20,4.60
2011,03,03,12,21,8.60
2011,03,03,12,22,4.20
2011,03,03,12,23,13.20
2011,03,03,12,24,13.20
2011,03,03,12,25,12.90
2011,03,03,12,26,15.50
2011,03,03,12,27,11.90
2011,03,03,12,28,14.20
2011,03,03,12,29,14.10
2011,03,03,12,30,12.60
2011,03,03,12,31,14.80
2011,03,03,12,32,9.30
2011,03,03,12,33,12.30
2011,03,03,12,34,7.30
2011,03,03,12,35,11.90
2011,03,03,12,36,13.30
2011,03,03,12,37,13.60
2011,03,03,12,38,13.90
2011,03,03,12,39,11.30
2011,03,03,12,40,12.40
2011,03,03,12,41,14.10
2011,03,03,12,42,13.60
2011,03,03,12,43,13.50
2011,03,03,12,44,9.60
2011,03,03,12,45,10.10
2011,03,03,12,46,8.10
2011,03,03,12,47,16.00
2011,03,03,12,48,12.10
2011,03,03,12,49,13.00
2011,03,03,12,50,14.40
2011,03,03,12,51,12.70
2011,03,03,12,52,10.40
2011,03,03,12,53,9.90
2011,03,03,12,54,12.10
2011,03,03,12,55,15.70
2011,03,03,12,56,17.30
2011,03,03,12,57,12.10
2011,03,03,12,58,13.60
2011,03,03,12,59,14.20
2011,03,03,13,00,12.70
2011,03,03,13,01,13.20
2011,03,03,13,02,15.50
2011,03,03,13,03,14.20
2011,03,03,13,04,9.50
2011,03,03,13,05,14.50
2011,03,03,13,06,7.50
2011,03,03,13,07,4.20
2011,03,03,13,08,5.10
2011,03,03,13,09,8.90
2011,03,03,13,10,4.60
2011,03,03,13,11,3.70
2011,03,03,13,12,7.50
2011,03,03,13,13,5.20
2011,03,03,13,14,2.50
2011,03,03,13,15,8.70
2011,03,03,13,16,11.80
2011,03,03,13,17,6.70
2011,03,03,13,18,8.30
2011,03,03,13,19,8.40
2011,03,03,13,20,6.20
2011,03,03,13,21,9.20
2011,03,03,13,22,6.90
2011,03,03,13,23,10.00
2011,03,03,13,24,10.80
2011,03,03,13,25,12.30
2011,03,03,13,26,12.10
2011,03,03,13,27,8.60
2011,03,03,13,28,8.50
2011,03,03,13,29,5.30
2011,03,03,13,30,7.10
2011,03,03,13,31,10.00
2011,03,03,13,32,9.20
2011,03,03,13,33,6.90
2011,03,03,13,34,8.40
2011,03,03,13,35,6.10
2011,03,03,13,36,7.70
2011,03,03,13,37,9.70
2011,03,03,13,38,11.00
2011,03,03,13,39,9.70
2011,03,03,13,40,12.90
2011,03,03,13,41,7.90
2011,03,03,13,42,7.20
2011,03,03,13,43,9.20
2011,03,03,13,44,9.70
2011,03,03,13,45,7.50
2011,03,03,13,46,7.70
2011,03,03,13,47,7.10
2011,03,03,13,48,8.40
2011,03,03,13,49,8.70
2011,03,03,13,50,8.40
2011,03,03,13,51,8.40
2011,03,03,13,52,6.60
2011,03,03,13,53,9.40
2011,03,03,13,54,5.00
2011,03,03,13,55,9.90
2011,03,03,13,56,5.70
2011,03,03,13,57,9.00
2011,03,03,13,58,9.40
2011,03,03,13,59,7.70
2011,03,03,14,00,8.00
2011,03,03,14,01,6.20
2011,03,03,14,02,8.30
2011,03,03,14,03,6.20
2011,03,03,14,04,8.60
2011,03,03,14,05,9.70
2011,03,03,14,06,4.70
2011,03,03,14,07,5.30
2011,03,03,14,08,9.80
2011,03,03,14,09,3.20
2011,03,03,14,10,8.30
2011,03,03,14,11,8.20
2011,03,03,14,12,8.60
2011,03,03,14,13,6.50
2011,03,03,14,14,3.80
2011,03,03,14,15,1.90
2011,03,03,14,16,4.80
2011,03,03,14,17,5.30
2011,03,03,14,18,7.70
2011,03,03,14,19,8.10
2011,03,03,14,20,4.10
2011,03,03,14,21,5.30
2011,03,03,14,22,8.40
2011,03,03,14,23,8.00
2011,03,03,14,24,4.00
2011,03,03,14,25,7.00
2011,03,03,14,26,4.00
2011,03,03,14,27,1.20
2011,03,03,14,28,1.00
2011,03,03,14,29,4.80
2011,03,03,14,30,5.40
2011,03,03,14,31,6.00
2011,03,03,14,32,4.10
2011,03,03,14,33,2.60
2011,03,03,14,34,4.10
2011,03,03,14,35,2.50
2011,03,03,14,36,2.30
2011,03,03,14,37,8.90
2011,03,03,14,38,4.20
2011,03,03,14,39,3.00
2011,03,03,14,40,5.90
2011,03,03,14,41,5.00
2011,03,03,14,42,5.30
2011,03,03,14,43,4.60
2011,03,03,14,44,7.40
2011,03,03,14,45,4.20
2011,03,03,14,46,7.50
2011,03,03,14,47,6.20
2011,03,03,14,48,5.90
2011,03,03,14,49,7.80
2011,03,03,14,50,7.60
2011,03,03,14,51,11.20
2011,03,03,14,52,6.90
2011,03,03,14,53,3.10
2011,03,03,14,54,7.60
2011,03,03,14,55,6.30
2011,03,03,14,56,5.40
2011,03,03,14,57,8.50
2011,03,03,14,58,4.20
2011,03,03,14,59,7.50
2011,03,03,15,00,7.20
2011,03,03,15,01,9.70
2011,03,03,15,02,3.50
2011,03,03,15,03,6.50
2011,03,03,15,04,4.60
2011,03,03,15,05,8.20
2011,03,03,15,06,5.10
2011,03,03,15,07,3.90
2011,03,03,15,08,4.60
2011,03,03,15,09,0.60
2011,03,03,15,10,4.20
2011,03,03,15,11,4.50
2011,03,03,15,12,6.80
2011,03,03,15,13,3.20
2011,03,03,15,14,2.90
2011,03,03,15,15,5.40
2011,03,03,15,16,2.20
2011,03,03,15,17,3.60
2011,03,03,15,18,3.00
2011,03,03,15,19,2.60
2011,03,03,15,20,5.20
2011,03,03,15,21,5.90
2011,03,03,15,22,8.30
2011,03,03,15,23,7.30
2011,03,03,15,24,3.70
2011,03,03,15,25,3.40
2011,03,03,15,26,0.30
2011,03,03,15,27,2.10
2011,03,03,15,28,1.90
2011,03,03,15,29,4.00
2011,03,03,15,30,4.10
2011,03,03,15,31,2.30
2011,03,03,15,32,0.50
2011,03,03,15,33,0.40
2011,03,03,15,34,1.90
2011,03,03,15,35,2.50
2011,03,03,15,36,0.90
2011,03,03,15,37,0.50
2011,03,03,15,38,0.60
2011,03,03,15,39,1.50
2011,03,03,15,40,2.30
2011,03,03,15,41,0.30
2011,03,03,15,42,2.70
2011,03,03,15,43,0.40
2011,03,03,15,44,0.70
2011,03,03,15,45,4.00
2011,03,03,15,46,1.90
2011,03,03,15,47,1.50
2011,03,03,15,48,2.60
2011,03,03,15,49,0.20
2011,03,03,15,50,2.60
2011,03,03,15,51,3.70
2011,03,03,15,52,1.30
2011,03,03,15,53,3.50
2011,03,03,15,54,3.00
2011,03,03,15,55,2.10
2011,03,03,15,56,1.90
2011,03,03,15,57,3.60
2011,03,03,15,58,4.20
2011,03,03,15,59,9.10
2011,03,03,16,00,5.60
2011,03,03,16,01,9.40
2011,03,03,16,02,6.80
2011,03,03,16,03,10.20
2011,03,03,16,04,17.30
2011,03,03,16,05,9.80
2011,03,03,16,06,15.00
2011,03,03,16,07,13.40
2011,03,03,16,08,10.50
2011,03,03,16,09,11.70
2011,03,03,16,10,10.90
2011,03,03,16,11,14.70
2011,03,03,16,12,17.00
2011,03,03,16,13,18.50
2011,03,03,16,14,8.00
2011,03,03,16,15,10.60
2011,03,03,16,16,7.70
2011,03,03,16,17,17.70
2011,03,03,16,18,12.30
2011,03,03,16,19,18.20
2011,03,03,16,20,13.60
2011,03,03,16,21,8.40
2011,03,03,16,22,3.60
2011,03,03,16,23,4.10
2011,03,03,16,24,3.80
2011,03,03,16,25,2.50
2011,03,03,16,26,6.30
2011,03,03,16,27,3.40
2011,03,03,16,28,9.00
2011,03,03,16,29,9.10
2011,03,03,16,30,8.00
2011,03,03,16,31,5.60
2011,03,03,16,32,5.10
2011,03,03,16,33,13.00
2011,03,03,16,34,5.50
2011,03,03,16,35,10.20
2011,03,03,16,36,9.50
2011,03,03,16,37,10.20
2011,03,03,16,38,3.80
2011,03,03,16,39,5.70
2011,03,03,16,40,9.20
2011,03,03,16,41,4.60
2011,03,03,16,42,7.30
2011,03,03,16,43,4.90
2011,03,03,16,44,7.00
2011,03,03,16,45,2.60
2011,03,03,16,46,1.20
2011,03,03,16,47,1.90
2011,03,03,16,48,6.10
2011,03,03,16,49,6.50
2011,03,03,16,50,5.80
2011,03,03,16,51,3.10
2011,03,03,16,52,5.30
2011,03,03,16,53,0.30
2011,03,03,16,54,0.20
2011,03,03,16,55,7.00
2011,03,03,16,56,2.40
2011,03,03,16,57,0.00
2011,03,03,16,58,0.00
2011,03,03,16,59,3.50
2011,03,03,17,00,0.20
2011,03,03,17,01,0.20
2011,03,03,17,02,2.30
2011,03,03,17,03,1.40
2011,03,03,17,04,2.10
2011,03,03,17,05,2.90
2011,03,03,17,06,0.50
2011,03,03,17,07,1.00
2011,03,03,17,08,1.80
2011,03,03,17,09,3.60
2011,03,03,17,10,1.80
2011,03,03,17,11,1.50
2011,03,03,17,12,2.70
2011,03,03,17,13,1.10
2011,03,03,17,14,1.90
2011,03,03,17,15,4.80
2011,03,03,17,16,3.60
2011,03,03,17,17,4.50
2011,03,03,17,18,1.90
2011,03,03,17,19,5.50
2011,03,03,17,20,6.30
2011,03,03,17,21,1.40
2011,03,03,17,22,1.90
2011,03,03,17,23,2.60
2011,03,03,17,24,8.50
2011,03,03,17,25,11.20
2011,03,03,17,26,6.80
2011,03,03,17,27,4.70
2011,03,03,17,28,1.60
2011,03,03,17,29,2.40
2011,03,03,17,30,1.40
2011,03,03,17,31,6.70
2011,03,03,17,32,3.00
2011,03,03,17,33,0.30
2011,03,03,17,34,1.60
2011,03,03,17,35,6.60
2011,03,03,17,36,2.70
2011,03,03,17,37,2.10
2011,03,03,17,38,0.50
2011,03,03,17,39,4.30
2011,03,03,17,40,3.40
2011,03,03,17,41,1.70
2011,03,03,17,42,1.50
2011,03,03,17,43,0.10
2011,03,03,17,44,0.30
2011,03,03,17,45,0.20
2011,03,03,17,46,0.60
2011,03,03,17,47,0.20
2011,03,03,17,48,0.80
2011,03,03,17,49,0.30
2011,03,03,17,50,2.20
2011,03,03,17,51,1.70
2011,03,03,17,52,1.90
2011,03,03,17,53,1.40
2011,03,03,17,54,2.00
2011,03,03,17,55,0.30
2011,03,03,17,56,0.10
2011,03,03,17,57,0.60
2011,03,03,17,58,0.40
2011,03,03,17,59,1.70
2011,03,03,18,00,1.70
2011,03,03,18,01,5.60
2011,03,03,18,02,7.50